| time (UTC) | temp F | wind direction | speed MPH | gust MPH | rain 1hr in | rain 24hr in | rain mn in | humidity % | barometer mb |
| 20260507020831 | 54 | 0.0 | 0.0 | 0.00 | 0.08 | 0.08 | 65 | 1015.7 | |
| 20260507020328 | 55 | 0.0 | 0.0 | 0.00 | 0.08 | 0.08 | 64 | 1015.9 | |
| 20260507015825 | 55 | 0.0 | 0.0 | 0.00 | 0.08 | 0.08 | 63 | 1015.7 | |
| 20260507015323 | 55 | 0.0 | 0.0 | 0.00 | 0.08 | 0.08 | 63 | 1015.7 | |
| 20260507014820 | 56 | 0.0 | 0.0 | 0.00 | 0.08 | 0.08 | 62 | 1015.8 | |
| 20260507014316 | 56 | 0.0 | 0.0 | 0.00 | 0.08 | 0.08 | 61 | 1015.5 | |
| 20260507013812 | 56 | 0.0 | 0.0 | 0.00 | 0.08 | 0.08 | 60 | 1015.5 | |
| 20260507013310 | 57 | 0.0 | 0.0 | 0.00 | 0.08 | 0.08 | 60 | 1015.1 | |
| 20260507012807 | 57 | 0.0 | 0.0 | 0.00 | 0.08 | 0.08 | 59 | 1015.2 | |
| 20260507012306 | 57 | 0.0 | 0.0 | 0.00 | 0.08 | 0.08 | 58 | 1015.2 | |
| 20260507011800 | 57 | 0.0 | 0.0 | 0.00 | 0.08 | 0.08 | 58 | 1015.0 | |
| 20260507011257 | 57 | 0.0 | 0.0 | 0.00 | 0.08 | 0.08 | 58 | 1015.0 | |
| 20260507010756 | 57 | 0.0 | 0.0 | 0.00 | 0.08 | 0.08 | 57 | 1014.8 | |
| 20260507010252 | 58 | 0.0 | 0.0 | 0.00 | 0.08 | 0.08 | 57 | 1014.6 | |
| 20260507005750 | 58 | 0.0 | 0.0 | 0.00 | 0.08 | 0.08 | 56 | 1014.6 | |
| 20260507005246 | 58 | 0.0 | 0.0 | 0.00 | 0.08 | 0.08 | 56 | 1014.8 | |
| 20260507004743 | 58 | 0.0 | 0.0 | 0.00 | 0.08 | 0.08 | 55 | 1015.0 | |
| 20260507004241 | 58 | 0.0 | 0.0 | 0.00 | 0.08 | 0.08 | 54 | 1015.0 | |
| 20260507003736 | 59 | 0.0 | 0.0 | 0.00 | 0.08 | 0.08 | 55 | 1014.8 | |
| 20260507003232 | 59 | 0.0 | 0.0 | 0.00 | 0.08 | 0.08 | 53 | 1014.7 | |
| 20260507002728 | 59 | 0.0 | 0.0 | 0.00 | 0.08 | 0.08 | 53 | 1014.7 | |
| 20260507002224 | 59 | 0.0 | 0.0 | 0.00 | 0.08 | 0.08 | 55 | 1014.7 | |
| 20260507001721 | 59 | 0.0 | 0.0 | 0.00 | 0.08 | 0.08 | 55 | 1014.5 | |
| 20260507001219 | 59 | 0.0 | 0.0 | 0.00 | 0.08 | 0.08 | 54 | 1014.6 | |
| 20260507000715 | 59 | 0.0 | 0.0 | 0.00 | 0.08 | 0.08 | 55 | 1014.5 | |
| 20260507000212 | 59 | 0.0 | 0.0 | 0.00 | 0.08 | 0.08 | 54 | 1014.6 | |
| 20260506235708 | 59 | 0.0 | 0.0 | 0.00 | 0.08 | 0.08 | 53 | 1014.2 | |
| 20260506235203 | 59 | 0.0 | 0.0 | 0.00 | 0.08 | 0.08 | 54 | 1014.3 | |
| 20260506234700 | 59 | 0.0 | 0.0 | 0.00 | 0.08 | 0.08 | 56 | 1014.6 | |
| 20260506234157 | 59 | 0.0 | 0.0 | 0.00 | 0.08 | 0.08 | 57 | 1014.5 | |
| 20260506233655 | 59 | 0.0 | 0.0 | 0.00 | 0.08 | 0.08 | 55 | 1014.5 | |
| 20260506233151 | 59 | 0.0 | 0.0 | 0.00 | 0.08 | 0.08 | 56 | 1014.5 | |
| 20260506232648 | 59 | 0.0 | 0.0 | 0.00 | 0.08 | 0.08 | 56 | 1014.7 | |
| 20260506232143 | 59 | 0.0 | 0.0 | 0.00 | 0.08 | 0.08 | 59 | 1014.4 | |
| 20260506231640 | 59 | 0.0 | 0.0 | 0.00 | 0.08 | 0.08 | 56 | 1014.8 | |
| 20260506231139 | 59 | 0.0 | 0.0 | 0.00 | 0.08 | 0.08 | 55 | 1014.8 | |
| 20260506230635 | 59 | 0.0 | 0.0 | 0.00 | 0.08 | 0.08 | 54 | 1014.7 | |
| 20260506230132 | 59 | 0.0 | 0.0 | 0.00 | 0.08 | 0.08 | 54 | 1014.6 | |
| 20260506225628 | 59 | 0.0 | 0.0 | 0.00 | 0.08 | 0.08 | 52 | 1014.6 | |
| 20260506225125 | 59 | 0.0 | 0.0 | 0.00 | 0.08 | 0.08 | 54 | 1014.4 | |
| 20260506224622 | 59 | 0.0 | 0.0 | 0.00 | 0.08 | 0.08 | 55 | 1014.5 | |
| 20260506224118 | 59 | 0.0 | 0.0 | 0.00 | 0.08 | 0.08 | 55 | 1014.7 | |
| 20260506223615 | 59 | 0.0 | 0.0 | 0.00 | 0.08 | 0.08 | 55 | 1014.9 | |
| 20260506223111 | 59 | 0.0 | 0.0 | 0.00 | 0.08 | 0.08 | 54 | 1014.8 | |
| 20260506222608 | 59 | 0.0 | 0.0 | 0.00 | 0.08 | 0.08 | 54 | 1014.7 | |
| 20260506222104 | 59 | 0.0 | 0.0 | 0.00 | 0.08 | 0.08 | 53 | 1014.6 | |
| 20260506221602 | 59 | 0.0 | 0.0 | 0.00 | 0.08 | 0.08 | 53 | 1014.6 | |
| 20260506221100 | 59 | 0.0 | 0.0 | 0.00 | 0.08 | 0.08 | 52 | 1014.9 | |
| 20260506220556 | 59 | 0.0 | 0.0 | 0.00 | 0.08 | 0.08 | 51 | 1014.9 | |
| 20260506220051 | 59 | 0.0 | 0.0 | 0.00 | 0.08 | 0.08 | 51 | 1014.6 | |
| 20260506215548 | 60 | 0.0 | 0.0 | 0.00 | 0.08 | 0.08 | 54 | 1014.7 | |
| 20260506215044 | 60 | 0.0 | 0.0 | 0.00 | 0.08 | 0.08 | 54 | 1014.7 | |
| 20260506214541 | 60 | 0.0 | 0.0 | 0.00 | 0.08 | 0.08 | 53 | 1014.6 | |
| 20260506214038 | 59 | 0.0 | 0.0 | 0.00 | 0.08 | 0.08 | 55 | 1014.3 | |
| 20260506213536 | 59 | 0.0 | 0.0 | 0.00 | 0.08 | 0.08 | 54 | 1014.4 | |
| 20260506213033 | 59 | 0.0 | 0.0 | 0.00 | 0.08 | 0.08 | 53 | 1014.2 | |
| 20260506212530 | 59 | 0.0 | 0.0 | 0.00 | 0.08 | 0.08 | 55 | 1014.6 | |
| 20260506212025 | 59 | 0.0 | 0.0 | 0.00 | 0.08 | 0.08 | 53 | 1014.6 | |
| 20260506211521 | 59 | 0.0 | 0.0 | 0.00 | 0.08 | 0.08 | 55 | 1014.3 | |
| 20260506211018 | 59 | 0.0 | 0.0 | 0.00 | 0.08 | 0.08 | 54 | 1014.1 | |
| 20260506210515 | 59 | 0.0 | 0.0 | 0.00 | 0.08 | 0.08 | 55 | 1014.3 | |
| 20260506210011 | 59 | 0.0 | 0.0 | 0.00 | 0.08 | 0.08 | 55 | 1014.2 | |
| 20260506205508 | 59 | 0.0 | 0.0 | 0.00 | 0.08 | 0.08 | 55 | 1014.4 | |
| 20260506205003 | 59 | 0.0 | 0.0 | 0.00 | 0.08 | 0.08 | 55 | 1014.4 | |
| 20260506204502 | 59 | 0.0 | 0.0 | 0.00 | 0.08 | 0.08 | 57 | 1014.9 | |
| 20260506203958 | 59 | 0.0 | 0.0 | 0.00 | 0.08 | 0.08 | 54 | 1015.0 | |
| 20260506203456 | 59 | 0.0 | 0.0 | 0.00 | 0.08 | 0.08 | 55 | 1015.4 | |
| 20260506202953 | 59 | 0.0 | 0.0 | 0.00 | 0.08 | 0.08 | 55 | 1015.4 | |
| 20260506202450 | 59 | 0.0 | 0.0 | 0.00 | 0.08 | 0.08 | 56 | 1015.1 | |
| 20260506201946 | 59 | 0.0 | 0.0 | 0.00 | 0.08 | 0.08 | 55 | 1015.0 | |
| 20260506201444 | 58 | 0.0 | 0.0 | 0.00 | 0.08 | 0.08 | 53 | 1015.0 | |
| 20260506200940 | 58 | 0.0 | 0.0 | 0.00 | 0.08 | 0.08 | 54 | 1015.0 | |
| 20260506200437 | 59 | 0.0 | 0.0 | 0.00 | 0.08 | 0.08 | 55 | 1014.7 | |
| 20260506195933 | 59 | 0.0 | 0.0 | 0.00 | 0.08 | 0.08 | 54 | 1014.6 | |
| 20260506195430 | 59 | 0.0 | 0.0 | 0.00 | 0.08 | 0.08 | 57 | 1014.9 | |
| 20260506194927 | 59 | 0.0 | 0.0 | 0.00 | 0.08 | 0.08 | 54 | 1015.1 | |
| 20260506194424 | 59 | 0.0 | 0.0 | 0.00 | 0.08 | 0.08 | 53 | 1015.1 | |
| 20260506193921 | 59 | 0.0 | 0.0 | 0.00 | 0.08 | 0.08 | 53 | 1014.8 | |
| 20260506193418 | 59 | 0.0 | 0.0 | 0.00 | 0.08 | 0.08 | 53 | 1014.8 | |
| 20260506192914 | 59 | 0.0 | 0.0 | 0.00 | 0.08 | 0.08 | 55 | 1014.7 | |
| 20260506192411 | 59 | 0.0 | 0.0 | 0.00 | 0.08 | 0.08 | 52 | 1014.7 | |
| 20260506191908 | 59 | 0.0 | 0.0 | 0.00 | 0.08 | 0.08 | 55 | 1014.7 | |
| 20260506191405 | 59 | 0.0 | 0.0 | 0.00 | 0.08 | 0.08 | 55 | 1014.7 | |
| 20260506190902 | 59 | 0.0 | 0.0 | 0.00 | 0.08 | 0.08 | 54 | 1014.7 | |
| 20260506190358 | 58 | 0.0 | 0.0 | 0.00 | 0.08 | 0.08 | 54 | 1015.1 | |
| 20260506185855 | 59 | 0.0 | 0.0 | 0.00 | 0.08 | 0.08 | 54 | 1014.9 | |
| 20260506185352 | 58 | 0.0 | 0.0 | 0.00 | 0.08 | 0.08 | 53 | 1014.9 | |
| 20260506184849 | 59 | 0.0 | 0.0 | 0.00 | 0.08 | 0.08 | 54 | 1014.9 | |
| 20260506184346 | 58 | 0.0 | 0.0 | 0.00 | 0.08 | 0.08 | 53 | 1014.8 | |
| 20260506183843 | 58 | 0.0 | 0.0 | 0.00 | 0.08 | 0.08 | 51 | 1014.9 | |
| 20260506183338 | 58 | 0.0 | 0.0 | 0.00 | 0.08 | 0.08 | 50 | 1014.8 | |
| 20260506182836 | 58 | 0.0 | 0.0 | 0.00 | 0.08 | 0.08 | 54 | 1015.0 | |
| 20260506182333 | 58 | 0.0 | 0.0 | 0.00 | 0.08 | 0.08 | 54 | 1014.9 | |
| 20260506181831 | 57 | 0.0 | 0.0 | 0.00 | 0.08 | 0.08 | 55 | 1015.0 | |
| 20260506181329 | 57 | 0.0 | 0.0 | 0.00 | 0.08 | 0.08 | 54 | 1015.0 | |
| 20260506180825 | 58 | 0.0 | 0.0 | 0.00 | 0.08 | 0.08 | 57 | 1014.7 | |
| 20260506180321 | 57 | 0.0 | 0.0 | 0.00 | 0.08 | 0.08 | 56 | 1014.7 | |
| 20260506175818 | 57 | 0.0 | 0.0 | 0.00 | 0.08 | 0.08 | 59 | 1014.7 | |
| 20260506175315 | 57 | 0.0 | 0.0 | 0.00 | 0.08 | 0.08 | 56 | 1014.7 | |
| 20260506174812 | 57 | 0.0 | 0.0 | 0.00 | 0.08 | 0.08 | 56 | 1014.3 | |
| 20260506174309 | 57 | 0.0 | 0.0 | 0.00 | 0.08 | 0.08 | 57 | 1014.7 | |
| 20260506173807 | 57 | 0.0 | 0.0 | 0.00 | 0.08 | 0.08 | 57 | 1014.7 | |
| 20260506173303 | 57 | 0.0 | 0.0 | 0.00 | 0.08 | 0.08 | 58 | 1014.5 | |
| 20260506172800 | 57 | 0.0 | 0.0 | 0.00 | 0.08 | 0.08 | 57 | 1014.6 | |
| 20260506172257 | 57 | 0.0 | 0.0 | 0.00 | 0.08 | 0.08 | 55 | 1014.8 | |
| 20260506171755 | 57 | 0.0 | 0.0 | 0.00 | 0.08 | 0.08 | 59 | 1014.5 | |
| 20260506171251 | 57 | 0.0 | 0.0 | 0.00 | 0.08 | 0.08 | 59 | 1014.9 | |
| 20260506170749 | 56 | 0.0 | 0.0 | 0.00 | 0.08 | 0.08 | 64 | 1015.0 | |
| 20260506170245 | 56 | 0.0 | 0.0 | 0.00 | 0.08 | 0.08 | 61 | 1015.2 | |
| 20260506165744 | 56 | 0.0 | 0.0 | 0.00 | 0.08 | 0.08 | 62 | 1015.0 | |
| 20260506165241 | 56 | 0.0 | 0.0 | 0.00 | 0.08 | 0.08 | 61 | 1015.4 | |
| 20260506164738 | 56 | 0.0 | 0.0 | 0.00 | 0.08 | 0.08 | 62 | 1015.1 | |
| 20260506164235 | 55 | 0.0 | 0.0 | 0.00 | 0.08 | 0.08 | 66 | 1014.8 | |
| 20260506163732 | 55 | 0.0 | 0.0 | 0.00 | 0.08 | 0.08 | 62 | 1015.0 | |
| 20260506163226 | 55 | 0.0 | 0.0 | 0.00 | 0.08 | 0.08 | 67 | 1015.1 | |
| 20260506162722 | 55 | 0.0 | 0.0 | 0.00 | 0.08 | 0.08 | 69 | 1015.1 | |
| 20260506162220 | 55 | 0.0 | 0.0 | 0.00 | 0.08 | 0.08 | 69 | 1015.0 | |
| 20260506161717 | 55 | 0.0 | 0.0 | 0.00 | 0.08 | 0.08 | 69 | 1015.1 | |
| 20260506161215 | 55 | 0.0 | 0.0 | 0.00 | 0.08 | 0.08 | 69 | 1015.4 | |
| 20260506160712 | 55 | 0.0 | 0.0 | 0.00 | 0.08 | 0.08 | 68 | 1015.1 | |
| 20260506160208 | 54 | 0.0 | 0.0 | 0.00 | 0.08 | 0.08 | 68 | 1014.8 | |
| 20260506155707 | 54 | 0.0 | 0.0 | 0.00 | 0.08 | 0.08 | 71 | 1015.0 | |
| 20260506155204 | 54 | 0.0 | 0.0 | 0.00 | 0.08 | 0.08 | 71 | 1015.0 | |
| 20260506153311 | 54 | 0.0 | 0.0 | 0.00 | 0.08 | 0.08 | 71 | 1015.2 | |
| 20260506152808 | 54 | 0.0 | 0.0 | 0.00 | 0.08 | 0.08 | 74 | 1015.0 | |
| 20260506152306 | 54 | 0.0 | 0.0 | 0.00 | 0.08 | 0.08 | 73 | 1015.4 | |
| 20260506151804 | 54 | 0.0 | 0.0 | 0.00 | 0.08 | 0.08 | 72 | 1014.9 | |
| 20260506151301 | 53 | 0.0 | 0.0 | 0.00 | 0.08 | 0.08 | 74 | 1015.1 | |
| 20260506150757 | 53 | 0.0 | 0.0 | 0.00 | 0.08 | 0.08 | 75 | 1015.0 | |
| 20260506150303 | 53 | 0.0 | 0.0 | 0.00 | 0.08 | 0.08 | 76 | 1014.8 | |
| 20260506145751 | 53 | 0.0 | 0.0 | 0.00 | 0.08 | 0.08 | 76 | 1014.8 | |
| 20260506145248 | 53 | 0.0 | 0.0 | 0.00 | 0.08 | 0.08 | 76 | 1014.6 | |
| 20260506144745 | 53 | 0.0 | 0.0 | 0.00 | 0.08 | 0.08 | 79 | 1014.7 | |
| 20260506144242 | 52 | 0.0 | 0.0 | 0.00 | 0.08 | 0.08 | 79 | 1014.1 | |
| 20260506143740 | 52 | 0.0 | 0.0 | 0.00 | 0.08 | 0.08 | 79 | 1014.3 | |
| 20260506143237 | 52 | 0.0 | 0.0 | 0.00 | 0.08 | 0.08 | 80 | 1014.1 | |
| 20260506142735 | 51 | 0.0 | 0.0 | 0.00 | 0.08 | 0.08 | 80 | 1014.1 | |
| 20260506142233 | 51 | 0.0 | 0.0 | 0.00 | 0.08 | 0.08 | 81 | 1014.3 | |
| 20260506141731 | 51 | 0.0 | 0.0 | 0.00 | 0.08 | 0.08 | 82 | 1013.8 | |
| 20260506141229 | 51 | 0.0 | 0.0 | 0.00 | 0.08 | 0.08 | 82 | 1013.9 | |
| 20260506140726 | 51 | 0.0 | 0.0 | 0.00 | 0.08 | 0.08 | 82 | 1013.9 | |
| 20260506140223 | 50 | 0.0 | 0.0 | 0.00 | 0.08 | 0.08 | 82 | 1014.0 | |
| 20260506135720 | 50 | 0.0 | 0.0 | 0.00 | 0.08 | 0.08 | 82 | 1014.0 | |
| 20260506135216 | 50 | 0.0 | 0.0 | 0.00 | 0.08 | 0.08 | 83 | 1013.6 | |
| 20260506134713 | 50 | 0.0 | 0.0 | 0.00 | 0.08 | 0.08 | 84 | 1013.9 | |
| 20260506134209 | 50 | 0.0 | 0.0 | 0.00 | 0.08 | 0.08 | 84 | 1014.0 | |
| 20260506133707 | 50 | 0.0 | 0.0 | 0.00 | 0.08 | 0.08 | 85 | 1013.9 | |
| 20260506133203 | 50 | 0.0 | 0.0 | 0.00 | 0.08 | 0.08 | 85 | 1013.8 | |
| 20260506132700 | 49 | 0.0 | 0.0 | 0.00 | 0.08 | 0.08 | 85 | 1013.9 | |
| 20260506132157 | 49 | 0.0 | 0.0 | 0.00 | 0.08 | 0.08 | 85 | 1013.8 | |
| 20260506131655 | 49 | 0.0 | 0.0 | 0.00 | 0.08 | 0.08 | 85 | 1013.4 | |
| 20260506131151 | 49 | 0.0 | 0.0 | 0.00 | 0.08 | 0.08 | 85 | 1013.5 | |
| 20260506130648 | 49 | 0.0 | 0.0 | 0.00 | 0.08 | 0.08 | 86 | 1013.4 | |
| 20260506130145 | 49 | 0.0 | 0.0 | 0.00 | 0.08 | 0.08 | 86 | 1013.2 | |
| 20260506125643 | 48 | 0.0 | 0.0 | 0.00 | 0.08 | 0.08 | 85 | 1013.2 | |
| 20260506125141 | 48 | 0.0 | 0.0 | 0.00 | 0.08 | 0.08 | 86 | 1013.4 | |
| 20260506124638 | 48 | 0.0 | 0.0 | 0.00 | 0.08 | 0.08 | 86 | 1013.4 | |
| 20260506124136 | 48 | 0.0 | 0.0 | 0.00 | 0.08 | 0.08 | 86 | 1013.8 | |
| 20260506123633 | 48 | 0.0 | 0.0 | 0.00 | 0.08 | 0.08 | 87 | 1013.7 | |
| 20260506123132 | 48 | 0.0 | 0.0 | 0.00 | 0.08 | 0.08 | 87 | 1013.2 | |
| 20260506122628 | 48 | 0.0 | 0.0 | 0.00 | 0.08 | 0.08 | 87 | 1013.3 | |
| 20260506122126 | 48 | 0.0 | 0.0 | 0.00 | 0.08 | 0.08 | 87 | 1013.2 | |
| 20260506121624 | 48 | 0.0 | 0.0 | 0.00 | 0.08 | 0.08 | 87 | 1013.2 | |
| 20260506121120 | 47 | 0.0 | 0.0 | 0.00 | 0.08 | 0.08 | 87 | 1013.1 | |
| 20260506120618 | 47 | 0.0 | 0.0 | 0.00 | 0.08 | 0.08 | 87 | 1012.7 | |
| 20260506120115 | 47 | 0.0 | 0.0 | 0.00 | 0.08 | 0.08 | 87 | 1012.9 | |
| 20260506115614 | 47 | 0.0 | 0.0 | 0.00 | 0.08 | 0.08 | 87 | 1012.8 | |
| 20260506115111 | 47 | 0.0 | 0.0 | 0.00 | 0.08 | 0.08 | 88 | 1012.4 | |
| 20260506114608 | 47 | 0.0 | 0.0 | 0.00 | 0.08 | 0.08 | 87 | 1012.7 | |
| 20260506114106 | 47 | 0.0 | 0.0 | 0.00 | 0.08 | 0.08 | 87 | 1012.6 | |
| 20260506113604 | 47 | 0.0 | 0.0 | 0.00 | 0.08 | 0.08 | 88 | 1012.8 | |
| 20260506113101 | 47 | 0.0 | 0.0 | 0.00 | 0.08 | 0.08 | 88 | 1012.8 | |
| 20260506112557 | 47 | 0.0 | 0.0 | 0.00 | 0.08 | 0.08 | 88 | 1012.6 | |
| 20260506112055 | 47 | 0.0 | 0.0 | 0.00 | 0.08 | 0.08 | 88 | 1012.4 | |
| 20260506111553 | 47 | 0.0 | 0.0 | 0.00 | 0.08 | 0.08 | 88 | 1012.3 | |
| 20260506111050 | 47 | 0.0 | 0.0 | 0.00 | 0.08 | 0.08 | 88 | 1012.2 | |
| 20260506110547 | 47 | 0.0 | 0.0 | 0.00 | 0.08 | 0.08 | 88 | 1012.4 | |
| 20260506110045 | 47 | 0.0 | 0.0 | 0.00 | 0.08 | 0.08 | 88 | 1012.8 | |
| 20260506105540 | 47 | 0.0 | 0.0 | 0.00 | 0.08 | 0.08 | 88 | 1012.6 | |
| 20260506105038 | 46 | 0.0 | 0.0 | 0.00 | 0.08 | 0.08 | 88 | 1012.3 | |
| 20260506104536 | 46 | 0.0 | 0.0 | 0.00 | 0.08 | 0.08 | 88 | 1012.1 | |
| 20260506104034 | 46 | 0.0 | 0.0 | 0.00 | 0.08 | 0.08 | 88 | 1012.3 | |
| 20260506103531 | 46 | 0.0 | 0.0 | 0.00 | 0.08 | 0.08 | 88 | 1012.1 | |
| 20260506103027 | 46 | 0.0 | 0.0 | 0.00 | 0.08 | 0.08 | 88 | 1011.6 | |
| 20260506102526 | 46 | 0.0 | 0.0 | 0.00 | 0.08 | 0.08 | 88 | 1011.3 | |
| 20260506102023 | 46 | 0.0 | 0.0 | 0.00 | 0.08 | 0.08 | 88 | 1011.5 | |
| 20260506101519 | 46 | 0.0 | 0.0 | 0.00 | 0.08 | 0.08 | 88 | 1011.4 | |
| 20260506101016 | 46 | 0.0 | 0.0 | 0.00 | 0.08 | 0.08 | 88 | 1011.2 | |
| 20260506100515 | 46 | 0.0 | 0.0 | 0.00 | 0.08 | 0.08 | 88 | 1011.6 | |
| 20260506100013 | 46 | 0.0 | 0.0 | 0.00 | 0.08 | 0.08 | 88 | 1011.4 | |
| 20260506095511 | 46 | 0.0 | 0.0 | 0.00 | 0.08 | 0.08 | 88 | 1011.1 | |
| 20260506095006 | 46 | 0.0 | 0.0 | 0.00 | 0.08 | 0.08 | 88 | 1010.9 | |
| 20260506094505 | 46 | 0.0 | 0.0 | 0.00 | 0.08 | 0.08 | 88 | 1010.8 | |
| 20260506094002 | 46 | 0.0 | 0.0 | 0.00 | 0.08 | 0.08 | 88 | 1010.7 | |
| 20260506093501 | 46 | 0.0 | 0.0 | 0.00 | 0.08 | 0.08 | 88 | 1010.9 | |
| 20260506092958 | 46 | 0.0 | 0.0 | 0.00 | 0.08 | 0.08 | 88 | 1011.1 | |
| 20260506092456 | 46 | 0.0 | 0.0 | 0.00 | 0.08 | 0.08 | 88 | 1011.1 | |
| 20260506091952 | 46 | 0.0 | 0.0 | 0.00 | 0.08 | 0.08 | 88 | 1011.0 | |
| 20260506091450 | 46 | 0.0 | 0.0 | 0.00 | 0.08 | 0.08 | 88 | 1011.3 | |
| 20260506090947 | 46 | 0.0 | 0.0 | 0.00 | 0.08 | 0.08 | 88 | 1011.2 | |
| 20260506090445 | 47 | 0.0 | 0.0 | 0.00 | 0.08 | 0.08 | 88 | 1010.9 | |
| 20260506085941 | 47 | 0.0 | 0.0 | 0.00 | 0.08 | 0.08 | 88 | 1010.6 | |
| 20260506085438 | 47 | 0.0 | 0.0 | 0.00 | 0.08 | 0.08 | 89 | 1010.7 | |
| 20260506084934 | 47 | 0.0 | 0.0 | 0.00 | 0.08 | 0.08 | 89 | 1010.8 | |
| 20260506084431 | 47 | 0.0 | 0.0 | 0.00 | 0.08 | 0.08 | 89 | 1010.8 | |
| 20260506083927 | 47 | 0.0 | 0.0 | 0.00 | 0.08 | 0.08 | 89 | 1011.1 | |
| 20260506083425 | 47 | 0.0 | 0.0 | 0.00 | 0.08 | 0.08 | 89 | 1011.1 | |
| 20260506082922 | 48 | 0.0 | 0.0 | 0.00 | 0.08 | 0.08 | 89 | 1010.7 | |
| 20260506082419 | 48 | 0.0 | 0.0 | 0.02 | 0.08 | 0.08 | 89 | 1010.4 | |
| 20260506081914 | 48 | 0.0 | 0.0 | 0.02 | 0.08 | 0.08 | 89 | 1010.6 | |
| 20260506081414 | 48 | 0.0 | 0.0 | 0.00 | 0.07 | 0.07 | 89 | 1010.5 | |
| 20260506080910 | 48 | 0.0 | 0.0 | 0.00 | 0.07 | 0.07 | 89 | 1010.7 | |
| 20260506080407 | 48 | 0.0 | 0.0 | 0.00 | 0.07 | 0.07 | 89 | 1010.4 | |
| 20260506073351 | 49 | 0.0 | 0.0 | 0.05 | 0.07 | 0.07 | 89 | 1009.2 | |
| 20260506072847 | 49 | 0.0 | 0.0 | 0.05 | 0.07 | 0.07 | 89 | 1008.4 | |
| 20260506072345 | 49 | 0.0 | 0.0 | 0.02 | 0.06 | 0.06 | 90 | 1008.6 | |
| 20260506071843 | 49 | 0.0 | 0.0 | 0.02 | 0.06 | 0.06 | 89 | 1009.3 | |
| 20260506071341 | 49 | 0.0 | 0.0 | 0.02 | 0.06 | 0.06 | 89 | 1008.8 | |
| 20260506070837 | 49 | 0.0 | 0.0 | 0.02 | 0.06 | 0.06 | 89 | 1009.2 | |
| 20260506070334 | 49 | 0.0 | 0.0 | 0.02 | 0.06 | 0.06 | 89 | 1009.6 | |
| 20260506062312 | 49 | 0.0 | 0.0 | 0.02 | 0.05 | 0.05 | 90 | 1009.8 | |
| 20260506061807 | 49 | 0.0 | 0.0 | 0.05 | 0.05 | 0.05 | 90 | 1009.4 | |
| 20260506061304 | 50 | 0.0 | 0.0 | 0.12 | 0.04 | 0.04 | 90 | 1009.7 | |
| 20260506060803 | 49 | 0.0 | 0.0 | 0.14 | 0.04 | 0.04 | 90 | 1010.2 | |
| 20260506060301 | 49 | 0.0 | 0.0 | 0.07 | 0.02 | 0.02 | 90 | 1010.0 | |
| 20260506051232 | 50 | 0.0 | 0.0 | 0.02 | 0.00 | 0.00 | 90 | 1009.2 | |
| 20260506050730 | 50 | 0.0 | 0.0 | 0.00 | 0.00 | 0.00 | 90 | 1009.2 | |
| 20260506050227 | 50 | 0.0 | 0.0 | 0.02 | 0.00 | 0.00 | 90 | 1009.1 | |
| 20260506044718 | 50 | 0.0 | 0.0 | 0.42 | 1.40 | 1.40 | 90 | 1009.4 | |
| 20260506044215 | 50 | 0.0 | 0.0 | 0.47 | 1.37 | 1.37 | 90 | 1008.9 | |
| 20260506043712 | 50 | 0.0 | 0.0 | 0.26 | 1.33 | 1.33 | 90 | 1009.4 | |
| 20260506043210 | 50 | 0.0 | 0.0 | 0.05 | 1.29 | 1.29 | 90 | 1008.6 | |
| 20260506042709 | 50 | 0.0 | 0.0 | 0.02 | 1.29 | 1.29 | 90 | 1008.4 | |
| 20260506042206 | 50 | 0.0 | 0.0 | 0.00 | 1.28 | 1.28 | 90 | 1008.5 | |
| 20260506041705 | 50 | 0.0 | 0.0 | 0.00 | 1.28 | 1.28 | 90 | 1008.2 | |
| 20260506041201 | 50 | 0.0 | 0.0 | 0.00 | 1.28 | 1.28 | 90 | 1008.4 | |
| 20260506040659 | 50 | 0.0 | 0.0 | 0.02 | 1.28 | 1.28 | 90 | 1008.3 | |
| 20260506040155 | 50 | 0.0 | 0.0 | 0.05 | 1.28 | 1.28 | 90 | 1008.4 | |
| 20260506035652 | 50 | 0.0 | 0.0 | 0.21 | 1.28 | 1.28 | 90 | 1008.5 | |
| 20260506035149 | 51 | 0.0 | 0.0 | 0.28 | 1.28 | 1.28 | 90 | 1008.6 | |
| 20260506034646 | 51 | 0.0 | 0.0 | 0.09 | 1.24 | 1.24 | 90 | 1008.7 | |
| 20260506034143 | 51 | 0.0 | 0.0 | 0.00 | 1.23 | 1.23 | 90 | 1008.5 | |
| 20260506033640 | 50 | 0.0 | 0.0 | 0.00 | 1.23 | 1.23 | 90 | 1008.2 | |
| 20260506033137 | 50 | 0.0 | 0.0 | 0.00 | 1.23 | 1.23 | 90 | 1007.9 | |
| 20260506032634 | 51 | 0.0 | 0.0 | 0.00 | 1.23 | 1.23 | 90 | 1007.9 | |
| 20260506032131 | 51 | 0.0 | 0.0 | 0.02 | 1.23 | 1.23 | 90 | 1007.9 | |
| 20260506031628 | 51 | 0.0 | 0.0 | 0.02 | 1.23 | 1.23 | 90 | 1007.8 | |
| 20260506031125 | 51 | 0.0 | 0.0 | 0.00 | 1.22 | 1.22 | 90 | 1008.2 | |
| 20260506030624 | 51 | 0.0 | 0.0 | 0.02 | 1.22 | 1.22 | 90 | 1007.8 | |
| 20260506030120 | 51 | 0.0 | 0.0 | 0.05 | 1.22 | 1.22 | 90 | 1008.1 | |
| 20260506025617 | 51 | 0.0 | 0.0 | 0.05 | 1.22 | 1.22 | 90 | 1008.1 | |
| 20260506025113 | 52 | 0.0 | 0.0 | 0.12 | 1.22 | 1.22 | 90 | 1008.1 | |
| 20260506024611 | 52 | 0.0 | 0.0 | 0.12 | 1.21 | 1.21 | 90 | 1008.0 | |
| 20260506024107 | 52 | 0.0 | 0.0 | 0.05 | 1.20 | 1.20 | 90 | 1007.9 | |
| 20260506023603 | 52 | 0.0 | 0.0 | 0.05 | 1.19 | 1.19 | 90 | 1007.9 | |
| 20260506023101 | 52 | 0.0 | 0.0 | 0.07 | 1.19 | 1.19 | 90 | 1007.6 | |
| 20260506022558 | 52 | 0.0 | 0.0 | 0.07 | 1.19 | 1.19 | 90 | 1007.5 | |
| 20260506022055 | 52 | 0.0 | 0.0 | 0.05 | 1.18 | 1.18 | 90 | 1007.2 | |
| 20260506021553 | 52 | 0.0 | 0.0 | 0.02 | 1.17 | 1.17 | 90 | 1007.6 | |
| 20260506021050 | 52 | 0.0 | 0.0 | 0.00 | 1.17 | 1.17 | 90 | 1007.2 |